Probability
0 0 0 1 1 1 0 0 0 0 1 2 4 6 8 10 11 12 12 11 12 13 16 19 20 20 19 17 15 16 16 14 13 13 13 13 11 6 5 6 6 4 4 5
0 0 0 1 2 2 2 1 1 2 2 3 3 4 5 7 9 10 10 10 12 14 16 17 17 17 16 15 14 15 16 15 13 13 14 14 11 8 5 5 5 4 3 3
0 0 0 0 1 2 3 2 3 4 4 3 3 3 3 4 6 7 8 9 12 13 13 13 14 15 15 14 13 13 14 13 12 12 13 13 12 9 6 5 5 5 3 2
0 0 0 0 0 1 1 1 2 3 3 3 3 4 4 3 4 6 6 8 10 12 11 11 12 14 15 13 11 11 12 12 11 10 10 10 9 8 6 4 5 5 3 2
0 0 0 0 0 0 0 0 1 1 1 1 2 4 4 3 3 4 5 6 8 11 11 10 10 12 12 10 9 10 11 11 10 9 8 7 6 5 4 4 4 4 2 1
0 0 0 0 0 0 0 1 2 1 1 1 2 3 3 2 3 4 5 6 8 10 11 10 10 11 11 10 8 8 11 11 9 9 9 6 4 3 4 3 3 2 1 0
0 0 0 1 1 1 0 1 2 2 1 1 1 1 1 2 5 6 6 9 11 11 11 11 12 13 13 11 7 6 9 10 9 9 10 8 6 5 5 4 3 3 1 0
0 0 0 1 2 1 0 1 1 1 0 0 0 1 2 4 6 6 8 10 12 13 13 13 14 14 13 10 6 6 8 9 9 10 10 10 9 9 8 6 4 3 2 0
0 0 0 1 2 1 1 1 2 2 2 2 2 3 4 5 6 6 7 9 11 13 14 14 14 14 11 8 6 6 7 8 10 11 11 11 13 13 11 8 6 4 3 2
0 0 1 2 3 2 1 2 3 3 4 4 4 4 5 6 6 6 7 8 10 11 13 14 14 13 11 9 7 7 7 8 9 10 11 13 13 13 12 11 10 8 7 6
0 0 1 2 3 3 2 2 2 3 4 5 5 5 6 6 6 6 7 8 10 11 12 13 12 11 11 11 9 7 7 7 7 8 10 12 12 11 10 11 11 10 10 10
0 0 1 2 3 3 3 2 1 2 4 5 5 6 6 7 7 6 7 9 10 12 12 11 10 9 9 10 9 8 7 6 6 7 8 9 9 8 6 6 7 7 8 8
0 1 2 3 3 3 3 2 1 2 3 4 5 6 7 8 7 6 6 8 10 11 11 10 9 7 6 7 7 6 6 6 6 6 7 7 7 6 4 3 2 2 2 2
1 2 3 3 3 3 3 3 3 3 4 4 5 7 7 7 7 6 6 6 7 9 9 8 7 6 4 4 4 4 5 5 5 6 6 6 6 5 5 4 3 1 0 0
2 3 3 3 3 3 3 3 4 4 5 6 7 7 7 6 5 4 4 4 5 6 7 6 5 4 3 2 3 4 4 5 4 4 4 5 5 4 4 4 3 2 1 0
3 3 3 3 3 3 3 3 3 3 4 4 5 6 5 4 4 3 3 3 4 5 5 5 4 3 3 3 3 3 4 4 3 3 3 3 3 2 2 2 2 1 1 0
3 3 3 3 3 3 3 2 2 1 1 1 2 3 3 3 3 3 3 3 3 4 4 4 3 3 4 3 3 3 3 3 3 3 3 3 2 1 0 0 0 0 0 0
3 3 3 2 2 2 1 1 1 0 0 0 0 1 1 2 2 2 3 3 4 4 4 3 3 4 4 3 2 2 3 3 3 3 3 3 2 1 0 0 0 0 0 0
2 2 1 1 1 1 0 0 0 0 0 0 0 0 0 1 1 1 1 3 4 5 4 4 4 5 4 2 1 1 1 2 2 2 2 2 1 0 0 0 0 0 0 0
1 1 0 0 0 0 0 0 0 0 0 0 0 0 0 0 0 0 0 2 3 4 3 3 4 4 4 2 1 0 0 1 1 1 1 1 0 0 0 0 0 0 0 0
0 0 0 0 0 0 0 0 0 0 0 0 0 0 0 0 0 0 0 2 3 2 2 2 3 3 3 3 1 0 0 0 0 0 0 0 0 0 0 0 0 0 0 0
0 0 0 0 0 0 0 0 0 0 0 0 0 0 0 0 0 0 0 1 2 1 1 1 2 3 3 3 2 1 0 0 0 0 0 0 0 0 0 0 0 0 0 0
0 0 0 0 0 0 0 0 0 0 0 0 0 0 0 0 0 0 0 0 0 0 0 1 2 2 2 2 2 1 0 0 0 0 0 0 0 0 0 0 0 0 0 0
0 0 0 0 0 0 0 0 0 0 0 0 0 0 0 0 0 0 0 0 0 0 0 0 1 1 1 2 2 1 0 0 0 0 0 0 0 0 0 0 0 0 0 0
0 0 0 0 0 0 0 0 0 0 0 0 0 0 0 0 0 0 0 0 0 0 0 0 0 0 0 1 1 0 0 0 0 0 0 0 0 0 0 0 0 0 0 0
0 0 0 0 0 0 0 0 0 0 0 0 0 0 0 0 0 0 0 0 0 0 0 0 0 0 0 0 0 0 0 0 0 0 0 0 0 0 0 0 0 0 0 0
0 0 0 0 0 0 0 0 0 0 0 0 0 0 0 0 0 0 0 0 0 0 0 0 0 0 0 0 0 0 0 0 0 0 0 0 0 0 0 0 0 0 0 0
Wind_Speed
3 3 1 1 2 1 1 4 5 5 5 5 5 5 5 6 7 8 6 5 5 5 4 4 4 3 3 3 3 4 4 3 3 3 3 2 2 2 2 2 3 2 2 2
1 1 1 2 3 2 1 1 2 2 2 3 3 3 5 6 7 7 7 6 5 5 5 4 4 4 3 3 2 3 4 3 3 3 3 2 2 2 2 2 2 1 1 2
3 3 2 3 3 0 1 0 3 3 4 4 5 4 4 5 6 7 7 6 6 5 5 5 4 4 5 4 2 3 3 3 2 3 3 2 2 2 1 2 2 1 1 2
1 1 2 5 2 3 5 4 3 3 3 5 5 4 3 3 4 4 5 6 5 4 4 3 3 3 3 3 3 2 2 3 3 3 2 2 2 2 2 2 2 2 2 2
3 2 3 3 2 0 3 2 3 3 3 3 4 5 3 1 3 3 3 4 5 5 4 3 3 3 4 3 3 3 2 2 3 3 3 2 2 3 2 2 2 2 2 3
3 3 4 5 4 1 5 1 2 2 4 3 3 2 2 1 2 3 3 3 3 3 3 3 3 3 4 3 3 2 3 3 3 3 3 3 3 3 2 2 3 2 2 3
3 3 3 5 5 2 3 5 2 3 4 4 3 3 3 1 2 3 3 3 3 3 3 3 3 4 4 3 2 3 2 2 2 2 3 3 2 2 2 2 2 2 2 3
2 2 5 4 2 2 4 2 2 2 3 3 3 3 3 3 3 3 4 3 3 3 3 2 3 4 3 3 2 1 1 1 1 2 2 2 2 2 2 2 2 2 2 3
4 4 3 1 2 2 3 3 2 2 2 4 5 3 3 3 3 2 3 2 1 2 2 1 2 3 3 3 2 1 1 1 2 2 2 2 3 3 2 2 2 3 2 3
2 1 1 1 3 2 2 2 2 2 3 4 4 4 4 3 2 2 1 1 1 1 1 1 1 2 2 2 2 2 2 2 2 2 2 2 2 2 2 3 3 3 3 3
1 1 2 2 1 2 3 4 5 4 3 4 5 4 4 3 2 2 1 0 1 2 2 1 1 1 1 2 2 2 2 2 2 2 2 2 2 3 3 4 4 4 4 3
4 5 3 3 1 3 4 3 4 4 3 2 4 4 3 3 2 2 1 1 1 2 2 1 1 1 1 1 2 2 1 2 2 2 3 3 3 3 4 4 5 6 6 5
4 3 2 2 2 3 4 3 3 3 3 3 2 3 3 2 2 2 1 1 1 1 1 1 1 1 1 1 1 2 2 2 2 2 2 3 3 3 3 4 4 4 5 6
2 2 2 2 2 3 3 3 3 4 4 4 4 4 4 3 3 2 1 1 0 1 0 0 0 1 2 1 1 1 2 2 2 2 2 2 3 3 3 3 3 3 3 4
2 4 4 3 4 4 4 4 5 4 4 3 4 4 4 3 2 1 1 1 1 1 0 0 0 2 2 1 1 2 2 2 2 2 2 2 3 3 2 2 2 2 2 2
3 5 6 5 4 4 4 4 4 3 2 3 3 3 3 3 2 2 1 1 2 1 1 1 2 3 2 1 1 1 2 3 3 2 2 2 2 2 2 2 2 2 2 3
4 3 3 3 3 2 2 2 3 2 2 3 2 2 2 2 1 1 1 1 2 2 2 2 2 3 2 1 2 2 2 2 3 2 2 2 2 2 2 3 3 3 3 4
3 3 3 4 3 2 2 2 2 2 2 2 2 2 2 2 2 2 2 1 0 0 2 2 2 2 2 2 2 1 1 2 2 2 2 2 3 3 3 3 4 4 3 3
4 4 3 3 3 3 2 1 1 0 1 1 2 1 2 2 1 1 1 0 0 1 3 3 3 1 2 3 2 1 1 2 2 3 3 3 3 3 2 3 3 3 3 2
4 4 3 2 2 2 2 1 1 1 1 2 2 2 1 1 1 0 0 1 2 3 3 3 2 2 2 3 3 1 2 2 2 2 2 2 3 3 3 3 3 3 2 3
3 3 2 2 1 1 1 1 1 1 0 1 1 1 1 2 1 1 0 2 4 3 2 3 2 2 2 2 3 2 2 2 2 2 2 3 3 3 2 3 3 3 2 2
2 2 2 2 2 2 1 1 1 1 1 1 1 0 1 1 2 1 2 3 4 3 2 1 2 3 3 3 2 2 2 2 2 2 2 2 2 3 3 3 3 2 2 2
2 1 1 1 0 0 1 1 0 0 1 1 1 1 1 2 2 1 2 3 2 2 1 2 2 4 4 2 2 2 2 2 2 2 2 2 2 3 3 3 3 2 2 2
1 1 1 1 0 0 1 2 1 1 2 2 2 2 2 2 2 2 3 3 3 2 2 2 4 4 4 2 2 2 2 2 2 2 3 3 2 3 3 2 2 2 2 2
1 1 1 1 1 2 2 2 2 1 2 2 2 3 2 2 3 3 3 3 3 3 2 3 4 4 3 2 2 2 2 3 3 3 3 3 2 3 3 3 2 2 2 2
2 2 2 3 3 3 2 2 2 2 2 2 2 3 3 2 3 3 2 2 3 3 2 2 2 2 1 1 2 2 2 2 2 2 2 2 2 2 2 2 3 2 2 2
1 1 1 1 1 2 2 2 2 2 2 2 3 3 3 2 2 2 2 2 2 2 2 2 2 1 1 1 2 2 2 2 1 1 1 1 2 2 2 2 2 1 1 1
Wind_Direction
212 226 203 265 289 287 178 189 188 214 198 211 191 175 151 138 132 128 127 129 139 140 132 127 132 142 149 147 142 143 147 158 177 173 166 160 163 175 183 187 190 194 191 207
266 263 42 360 333 303 299 168 162 146 213 204 167 133 124 132 133 132 139 145 148 141 136 142 148 157 149 145 159 154 155 168 169 153 152 157 165 165 161 173 183 174 181 192
255 278 359 323 293 307 93 114 158 185 215 143 110 121 151 152 143 150 156 155 152 149 156 161 166 161 157 157 152 149 150 149 148 150 148 165 171 156 169 192 192 196 213 201
203 38 215 244 282 92 89 57 52 115 130 137 139 134 114 120 135 154 159 157 153 150 154 164 149 139 136 130 136 145 154 160 162 161 170 177 168 181 202 208 205 204 213 220
147 171 247 285 308 173 118 59 6 94 99 117 123 82 60 101 135 166 165 163 161 157 154 152 147 143 132 136 151 157 168 182 181 176 179 182 193 204 208 203 218 215 210 213
151 171 213 249 287 265 109 107 306 105 123 124 99 114 232 220 125 125 124 137 140 135 124 132 149 139 130 140 151 168 197 202 197 186 183 195 213 221 219 207 223 225 226 226
172 191 243 278 301 39 131 223 229 152 141 126 130 180 191 150 105 118 109 114 113 121 131 155 156 138 140 151 192 210 215 209 194 207 202 203 208 219 227 229 236 240 241 244
158 177 246 308 35 123 198 202 141 130 134 123 127 121 115 99 92 98 93 88 109 129 156 173 161 148 156 189 207 195 192 207 214 228 226 214 202 226 233 226 229 246 252 262
177 204 238 300 134 171 151 129 120 124 122 118 123 121 112 97 95 97 98 91 93 137 150 180 173 162 176 209 184 165 191 237 246 251 246 228 214 224 233 230 225 236 238 248
84 344 341 50 76 68 94 109 104 112 109 109 120 123 116 113 104 95 93 120 138 137 145 234 218 176 191 202 174 165 213 248 258 266 277 279 255 239 231 231 235 239 236 243
59 296 14 13 53 85 80 92 96 94 99 116 124 124 126 129 138 141 112 250 157 152 163 231 283 247 220 209 176 179 219 243 261 268 266 272 266 246 238 234 224 220 231 231
222 226 198 235 244 112 105 104 111 109 93 104 122 131 127 139 151 141 161 167 138 137 159 202 216 245 254 226 187 185 230 246 247 251 261 260 262 280 281 265 256 234 227 225
216 216 166 154 93 88 103 107 111 112 119 115 108 122 122 120 119 120 119 93 129 156 176 192 217 254 255 234 198 191 226 248 257 255 253 253 260 259 279 299 292 264 251 246
189 108 81 76 96 93 97 95 96 98 105 120 119 111 109 101 102 111 132 181 185 131 159 224 221 266 268 253 217 223 234 249 256 256 255 252 252 249 239 246 275 289 283 265
102 110 128 113 88 75 83 91 91 87 87 89 109 116 119 120 133 163 192 184 121 102 64 289 271 282 281 258 236 240 242 246 252 252 252 252 251 250 249 245 251 268 288 296
87 93 101 98 97 87 84 87 93 93 98 107 119 137 147 152 167 186 200 181 161 195 226 226 261 271 270 245 248 258 254 258 264 261 264 264 259 259 262 257 251 250 253 255
91 88 96 98 99 94 93 98 108 104 116 123 146 162 148 140 147 225 261 242 197 201 215 221 256 274 264 242 239 248 257 268 280 281 273 269 260 255 255 250 246 246 251 247
98 107 118 126 122 106 81 84 94 103 131 163 148 140 146 162 202 242 258 260 208 240 253 247 255 273 274 266 258 251 257 261 264 266 272 274 264 253 254 255 251 249 256 258
87 89 91 93 101 107 101 88 64 107 120 126 130 147 183 194 211 239 249 112 223 267 275 265 259 254 268 270 279 257 270 279 282 279 274 271 270 259 248 254 259 256 248 250
92 97 97 95 99 107 106 100 92 71 64 84 94 82 53 290 244 245 43 227 234 238 251 253 239 238 249 263 274 257 260 269 272 273 274 273 269 268 261 258 255 258 257 248
100 94 92 95 92 86 87 96 102 95 42 69 108 141 266 280 272 244 223 272 278 264 251 241 228 235 243 260 273 271 274 273 265 266 270 269 270 268 263 262 257 252 250 250
111 102 89 80 73 42 13 36 79 86 57 39 39 72 356 315 301 293 264 249 258 258 245 246 242 239 250 260 261 266 269 269 267 269 273 279 277 272 273 271 261 260 256 250
135 132 115 113 146 258 325 346 332 191 202 221 242 246 253 258 250 237 284 283 275 262 248 257 254 252 250 248 254 255 264 278 285 285 281 283 282 275 273 272 265 256 246 247
135 141 180 229 231 84 307 291 279 258 244 249 245 237 239 263 274 252 241 263 262 249 254 268 272 268 256 247 244 247 247 256 268 276 283 285 289 286 281 276 274 262 245 245
176 172 190 202 225 238 248 262 278 275 264 267 267 258 252 230 233 250 255 262 266 255 264 276 278 269 261 263 257 258 260 259 259 261 268 276 286 295 293 285 270 258 252 247
214 224 230 227 225 230 238 241 252 260 258 266 275 265 262 260 244 243 252 260 264 267 275 278 262 249 253 264 270 272 273 277 274 267 267 275 283 284 287 288 290 274 256 240
242 254 273 286 270 238 229 226 235 256 249 236 260 269 261 263 266 262 257 261 268 266 263 261 251 247 259 274 279 280 285 293 290 274 271 273 270 274 278 273 263 254 240 227